CW0962 Weather Reports


Display with metric or nautical units.
time (UTC)temp
F
wind
direction
speed
MPH
gust
MPH
rain 1hr
in
rain 24hr
in
rain mn
in
humidity
%
barometer
mb
20260505020525 54 157 6.0 16.0 0.00 0.00 0.00 70 1010.0
20260505020015 54 176 6.0 16.0 0.00 0.00 0.00 69 1010.0
20260505015008 54 143 5.0 18.0 0.00 0.00 0.00 69 1009.9
20260505014510 54 194 5.0 18.0 0.00 0.00 0.00 68 1009.9
20260505013504 54 184 6.0 15.0 0.00 0.00 0.00 67 1009.7
20260505013011 55 198 7.0 15.0 0.00 0.00 0.00 67 1009.7
20260505012501 55 182 7.0 15.0 0.00 0.00 0.00 66 1009.6
20260505012005 55 167 6.0 13.0 0.00 0.00 0.00 66 1009.6
20260505011550 55 207 6.0 19.0 0.00 0.00 0.00 65 1009.5
20260505011017 55 167 6.0 20.0 0.00 0.00 0.00 65 1009.4
20260505010507 55 210 7.0 20.0 0.00 0.00 0.00 64 1009.3
20260505005515 56 172 9.0 27.0 0.00 0.00 0.00 64 1009.1
20260505005033 56 171 7.0 21.0 0.00 0.00 0.00 64 1009.1
20260505004458 56 212 6.0 22.0 0.00 0.00 0.00 63 1009.0
20260505004003 56 206 7.0 22.0 0.00 0.00 0.00 63 1009.0
20260505003459 56 168 8.0 20.0 0.00 0.00 0.00 62 1008.8
20260505002516 56 186 6.0 20.0 0.00 0.00 0.00 61 1008.6
20260505001505 57 223 8.0 21.0 0.00 0.00 0.00 59 1008.4
20260505001004 57 204 8.0 21.0 0.00 0.00 0.00 58 1008.4
20260505000501 57 188 8.0 20.0 0.00 0.00 0.00 57 1008.2
20260505000006 57 182 7.0 20.0 0.00 0.00 0.00 57 1008.2
20260504235517 57 219 8.0 15.0 0.00 0.00 0.00 57 1008.2
20260504235015 57 205 7.0 15.0 0.00 0.00 0.00 56 1008.1
20260504234501 57 194 6.0 18.0 0.00 0.00 0.00 54 1008.2
20260504234004 58 181 6.0 18.0 0.00 0.00 0.00 54 1008.1
20260504233459 58 213 6.0 18.0 0.00 0.00 0.00 53 1008.1
20260504233038 58 211 8.0 28.0 0.00 0.00 0.00 52 1008.0
20260504232502 59 166 8.0 28.0 0.00 0.00 0.00 50 1007.9
20260504232021 59 131 8.0 18.0 0.00 0.00 0.00 50 1007.8
20260504231510 59 231 7.0 18.0 0.00 0.00 0.00 49 1007.8
20260504231027 59 178 7.0 20.0 0.00 0.00 0.00 48 1007.7
20260504230508 60 168 8.0 20.0 0.00 0.00 0.00 47 1007.6
20260504225502 60 192 6.0 16.0 0.00 0.00 0.00 45 1007.7
20260504224003 61 155 7.0 16.0 0.00 0.00 0.00 44 1007.3
20260504223501 61 173 8.0 21.0 0.00 0.00 0.00 44 1007.2
20260504223002 61 178 10.0 22.0 0.00 0.00 0.00 42 1007.2
20260504222028 62 134 7.0 28.0 0.00 0.00 0.00 42 1007.3
20260504221509 62 151 8.0 28.0 0.00 0.00 0.00 41 1007.1
20260504221001 62 163 9.0 20.0 0.00 0.00 0.00 41 1007.2
20260504220508 62 215 9.0 20.0 0.00 0.00 0.00 40 1007.2
20260504220051 63 235 9.0 28.0 0.00 0.00 0.00 40 1007.2
20260504215501 63 177 9.0 28.0 0.00 0.00 0.00 40 1007.2
20260504215001 63 242 9.0 19.0 0.00 0.00 0.00 40 1007.1
20260504214505 63 155 9.0 25.0 0.00 0.00 0.00 40 1007.0
20260504214023 64 165 9.0 25.0 0.00 0.00 0.00 40 1007.1
20260504213007 64 290 8.0 20.0 0.00 0.00 0.00 39 1007.0
20260504212501 64 149 9.0 23.0 0.00 0.00 0.00 38 1007.0
20260504212009 64 56 10.0 23.0 0.00 0.00 0.00 38 1006.8
20260504211514 65 194 10.0 22.0 0.00 0.00 0.00 38 1006.9
20260504210504 65 188 8.0 26.0 0.00 0.00 0.00 36 1007.0
20260504210004 66 172 8.0 22.0 0.00 0.00 0.00 36 1007.0
20260504205509 66 156 9.0 22.0 0.00 0.00 0.00 34 1006.7
20260504205007 66 202 9.0 28.0 0.00 0.00 0.00 33 1006.9
20260504204500 67 191 9.0 28.0 0.00 0.00 0.00 32 1006.7
20260504204011 67 138 8.0 22.0 0.00 0.00 0.00 33 1006.7
20260504203503 67 166 10.0 27.0 0.00 0.00 0.00 33 1006.8
20260504203007 67 110 9.0 27.0 0.00 0.00 0.00 31 1006.7
20260504202505 67 96 10.0 27.0 0.00 0.00 0.00 31 1006.6
20260504202021 66 164 11.0 31.0 0.00 0.00 0.00 31 1006.7
20260504201510 67 186 10.0 31.0 0.00 0.00 0.00 31 1006.7
20260504201020 67 184 11.0 27.0 0.00 0.00 0.00 31 1006.6
20260504200509 67 177 13.0 29.0 0.00 0.00 0.00 31 1006.7
20260504200104 67 173 11.0 29.0 0.00 0.00 0.00 31 1006.6
20260504195006 67 244 11.0 26.0 0.00 0.00 0.00 31 1006.7
20260504194503 68 155 10.0 26.0 0.00 0.00 0.00 30 1006.7
20260504194005 68 167 10.0 26.0 0.00 0.00 0.00 30 1006.7
20260504193109 68 180 10.0 29.0 0.00 0.00 0.00 30 1006.7
20260504174011 70 192 8.0 24.0 0.00 0.00 0.00 29 1006.6
20260504173126 69 151 10.0 25.0 0.00 0.00 0.00 28 1006.9
20260504172504 69 136 9.0 22.0 0.00 0.00 0.00 30 1006.7
20260504172028 70 178 9.0 26.0 0.00 0.00 0.00 29 1007.0
20260504171510 70 210 9.0 26.0 0.00 0.00 0.00 29 1007.1
20260504171021 70 169 10.0 26.0 0.00 0.00 0.00 27 1007.1
20260504170507 69 190 9.0 26.0 0.00 0.00 0.00 27 1007.2
20260504151028 67 183 7.0 20.0 0.00 0.01 0.00 34 1008.2
20260504141026 65 221 6.0 15.0 0.00 0.01 0.00 39 1009.0
20260504140501 64 209 5.0 12.0 0.00 0.01 0.00 37 1009.0
20260504130511 60 190 4.0 12.0 0.00 0.01 0.00 43 1009.3
20260504100508 46 156 3.0 9.0 0.00 0.01 0.00 63 1009.5
20260504081501 45 189 2.0 4.0 0.00 0.03 0.00 64 1009.3
20260504080507 45 180 2.0 6.0 0.00 0.03 0.00 64 1009.2
20260504044505 40 195 2.0 9.0 0.00 0.04 0.00 68 1008.8
20260504043005 39 195 2.0 7.0 0.00 0.04 0.00 72 1009.0
20260504042022 38 206 1.0 6.0 0.00 0.04 0.00 75 1008.9
20260504041501 38 197 0.0 6.0 0.00 0.04 0.00 77 1008.9
20260504041009 38 235 0.0 0.0 0.00 0.04 0.00 77 1008.8
20260504040510 38 235 0.0 0.0 0.00 0.04 0.00 77 1008.7
20260504040007 38 235 0.0 0.0 0.00 0.04 0.00 77 1008.7
20260504035503 38 235 0.0 0.0 0.00 0.06 0.04 77 1008.7
20260504035007 38 235 0.0 0.0 0.00 0.06 0.04 76 1008.6
20260504034504 38 235 0.0 0.0 0.00 0.06 0.04 76 1008.7
20260504033519 38 235 0.0 0.0 0.00 0.06 0.04 76 1008.6
20260504033026 38 235 0.0 0.0 0.00 0.06 0.04 76 1008.6
20260504032510 38 235 0.0 0.0 0.00 0.06 0.04 75 1008.6
20260504032004 39 235 0.0 0.0 0.00 0.06 0.04 75 1008.6
20260504031520 39 235 0.0 0.0 0.00 0.06 0.04 73 1008.5
20260504031007 39 235 0.0 0.0 0.00 0.06 0.04 72 1008.5
20260504030502 39 236 0.0 0.0 0.00 0.06 0.04 74 1008.5
20260504030006 39 236 0.0 0.0 0.00 0.06 0.04 74 1008.5
20260504025504 39 236 0.0 0.0 0.00 0.09 0.04 74 1008.5
20260504025005 39 236 0.0 0.0 0.00 0.09 0.04 75 1008.4
20260504024520 39 236 0.0 0.0 0.00 0.09 0.04 75 1008.5
20260504024030 39 236 0.0 0.0 0.00 0.09 0.04 75 1008.5
20260504023505 39 236 0.0 1.0 0.00 0.09 0.04 75 1008.5
20260504023027 39 236 0.0 1.0 0.00 0.09 0.04 75 1008.4
20260504022009 39 236 0.0 1.0 0.00 0.09 0.04 73 1008.4
20260504021508 40 236 0.0 0.0 0.00 0.09 0.04 72 1008.3